Regional Weather Roundup
Issued by NWS

Home | Current Version | Previous Version | Text Only | Print | Product List | Glossary Off
Versions: 1 2 3 4 5 6 7 8 9 10 11 12 13 14 15 16 17 18 19 20 21 22 23 24 25 26 27 28 29 30 31 32 33 34 35 36 37 38 39 40 41 42 43 44 45 46 47 48 49 50

000
ASUS43 KOAX 271802
RWRNE

WEATHER ROUNDUP FOR NEBRASKA
NATIONAL WEATHER SERVICE OMAHA NE
100 PM CDT THU APR 27 2017

NOTES: SATELLITE DATA IS BEING USED TO AUGMENT CLOUD COVER ABOVE
       12000 FEET.
       "FAIR" INDICATES FEW OR NO CLOUDS BELOW 12,000 FEET WITH NO
       SIGNIFICANT WEATHER AND/OR OBSTRUCTIONS TO VISIBILITY.

  * THESE STATIONS DO NOT REPORT WEATHER SUCH AS RAIN...SNOW OR FOG.

NEZ001>004-019>022-054>056-271900-
NEBRASKA PANHANDLE

CITY           SKY/WX    TMP DP  RH WIND       PRES   REMARKS
SCOTTSBLUFF    LGT RAIN  47  40  76 W6        29.56F
6HR MIN TEMP:  36; 6HR MAX TEMP:  48; 6HR PCP:  0.01;

ALLIANCE       PTSUNNY   50  38  63 SE12      29.56F
6HR MIN TEMP:  28; 6HR MAX TEMP:  51;

CHADRON        CLOUDY    49  37  63 NE10      29.58F
6HR MIN TEMP:  30; 6HR MAX TEMP:  49;

KIMBALL        CLOUDY    44  40  83 N10       29.56S
SIDNEY         LGT RAIN  45  41  86 NE13      29.56F
6HR MIN TEMP:  36; 6HR MAX TEMP:  45; 6HR PCP: TRACE;

$$

NEZ057>060-069>072-079>082-271900-
SOUTHWEST NEBRASKA

CITY           SKY/WX    TMP DP  RH WIND       PRES   REMARKS
NORTH PLATTE   CLOUDY    50  36  58 E15       29.64F
6HR MIN TEMP:  35; 6HR MAX TEMP:  50; 6HR PCP: TRACE;

IMPERIAL       CLOUDY    52  35  52 SE21G28   29.58F
6HR MIN TEMP:  35; 6HR MAX TEMP:  52;

LEXINGTON      CLOUDY    50  33  51 SE13      29.68F
MCCOOK         CLOUDY    49  35  58 SE15      29.63F
6HR MIN TEMP:  31; 6HR MAX TEMP:  49;

OGALLALA       CLOUDY    50  35  56 E14       29.60F
$$

NEZ005>010-023>029-035>040-094-271900-
NORTH CENTRAL NEBRASKA

CITY           SKY/WX    TMP DP  RH WIND       PRES   REMARKS
VALENTINE      SUNNY     50  29  44 NE12G17   29.67S
6HR MIN TEMP:  21; 6HR MAX TEMP:  51;

AINSWORTH      SUNNY     47  33  59 NE6       29.68F
BROKEN BOW     LGT RAIN  46  36  68 S9        29.68S
6HR MIN TEMP:  27; 6HR MAX TEMP:  49; 6HR PCP: TRACE;

O`NEILL        SUNNY     43  31  64 CALM      29.71F
ORD            PTSUNNY   50  31  48 VRB3      29.68F
6HR MIN TEMP:  27; 6HR MAX TEMP:  51;

THEDFORD       CLOUDY    53  34  48 E8G16     29.65F
$$

NEZ041-046>049-061>064-073>077-083>087-271900-
SOUTH CENTRAL NEBRASKA

CITY           SKY/WX    TMP DP  RH WIND       PRES   REMARKS
GRAND ISLAND   PTSUNNY   52  31  44 VRB6      29.71F
6HR MIN TEMP:  28; 6HR MAX TEMP:  52;

AURORA         CLOUDY    52  30  42 CALM      29.71F
HASTINGS       PTSUNNY   51  31  46 S6        29.72F
6HR MIN TEMP:  29; 6HR MAX TEMP:  51;

HEBRON         MOSUNNY   53  32  45 CALM      29.72F
HOLDREGE       CLOUDY    48  31  52 SE12      29.69S
KEARNEY *      MOSUNNY   52  30  43 S7        29.70F
YORK           SUNNY     52  32  46 CALM      29.72F
$$

NEZ011>018-030>034-042>045-271900-
NORTHEAST NEBRASKA

CITY           SKY/WX    TMP DP  RH WIND       PRES   REMARKS
NORFOLK        CLOUDY    42  32  67 W7        29.71F
6HR MIN TEMP:  30; 6HR MAX TEMP:  43;

ALBION         SUNNY     47  33  57 N5        29.71F
BLAIR          PTSUNNY   46  35  63 W9G16     29.72F
FREMONT        PTSUNNY   47  34  61 W5        29.74F
TEKAMAH        SUNNY     49  31  49 VRB3      29.72F
6HR MIN TEMP:  35; 6HR MAX TEMP:  49;

WAYNE          MOSUNNY   45  34  65 NW12      29.72S
$$

NEZ050>053-065>068-078-088>093-271900-
SOUTHEAST NEBRASKA

CITY           SKY/WX    TMP DP  RH WIND       PRES   REMARKS
LINCOLN        SUNNY     53  32  44 VRB6      29.74F
6HR MIN TEMP:  33; 6HR MAX TEMP:  54;

OMAHA EPPLEY   MOSUNNY   48  33  56 SW9       29.74F
6HR MIN TEMP:  36; 6HR MAX TEMP:  50;

BEATRICE       PTSUNNY   52  33  48 CALM      29.73F
FALLS CITY     SUNNY     55  37  50 W10       29.73F
6HR MIN TEMP:  40; 6HR MAX TEMP:  55;

NEBRASKA CITY  MOSUNNY   52  29  40 W9        29.73F
PLATTSMOUTH    MOSUNNY   49  31  50 W9        29.74F
$$

NEZ044-045-051>053-067-271900-
OMAHA AREA

CITY           SKY/WX    TMP DP  RH WIND       PRES   REMARKS
OMAHA EPPLEY   MOSUNNY   48  33  56 SW9       29.74F
6HR MIN TEMP:  36; 6HR MAX TEMP:  50;

BLAIR          PTSUNNY   46  35  63 W9G16     29.72F
FREMONT        PTSUNNY   47  34  61 W5        29.74F
MILLARD        MOSUNNY   48  36  63 W7        29.75F
OFFUTT AFB     MOSUNNY   48  34  59 W7        29.74F
PLATTSMOUTH    MOSUNNY   49  31  50 W9        29.74F
WAHOO          FAIR      49  33  52 W3        29.73F
$$




USA.gov is the U.S. government's official web portal to all federal, state and local government web resources and services.